Date String (YYYY-MM-DD hh:mm:ss) UTC,Instrument flags,absolute air pressure of the measurement (hPa),sample flow rate (lpm),inlet stack bypass flow (lpm),air temperature of the measurement (°C),ambient temperature measured by the external sensor (°C),aerosol sample conditioner tube jacket temperature (°C),OPC LED temperature (°C),internal box temperature (°C),relative humidity of the measurement (%),span deviation,mass concentration of particles derived from Lorenz-Mie calculation of OPC scattering (μg/m³),mass concentration of particles derived from Lorenz-Mie calculation of OPC scattering (μg/m³),mass concentration of particles derived from Lorenz-Mie calculation of OPC scattering (μg/m³)
DateTimeUTC,F1_M11,P_M11,Q1_M11,Q2_M11,T1_M11,T2_M11,T3_M11,T4_M11,T5_M11,U1_M11,ZSPAN_M11,X0_M11,X2_M11,X1_M11
2023-11-21 11:00:00,SystemResetWarning,0841.3,5.00,000.00,019.2,018.3,000.0,027.7,020.3,18.1,0000.0,0005.20,0001.88,0001.64
2023-11-21 11:01:00,SystemResetWarning,0841.3,4.99,000.00,019.2,018.3,000.0,027.6,020.3,18.1,0000.0,0004.76,0001.88,0001.63
2023-11-21 11:02:00,SystemResetWarning,0841.3,4.99,000.00,019.2,018.3,000.0,027.6,020.4,18.1,0000.0,0003.49,0001.86,0001.62
2023-11-21 11:03:00,SystemResetWarning,0841.3,5.00,000.00,019.2,018.3,000.0,027.6,020.3,18.1,0000.0,0003.52,0001.88,0001.62
2023-11-21 11:04:00,SystemResetWarning,0841.3,5.01,000.00,019.2,018.3,000.0,027.6,020.3,18.1,0000.0,0003.49,0001.86,0001.62
2023-11-21 11:05:00,SystemResetWarning,0841.3,5.01,000.00,019.2,018.3,000.0,027.6,020.3,18.1,0000.0,0003.47,0001.86,0001.64
2023-11-21 11:06:00,SystemResetWarning,0841.3,5.00,000.00,019.2,018.3,000.0,027.6,020.3,18.1,0000.0,0003.45,0001.85,0001.64
2023-11-21 11:07:00,SystemResetWarning,0841.3,4.99,000.00,019.2,018.3,000.0,027.6,020.3,18.2,0000.0,0005.11,0001.84,0001.63
2023-11-21 11:08:00,SystemResetWarning,0841.3,4.99,000.00,019.2,018.3,000.0,027.6,020.4,18.2,0000.0,0006.29,0001.85,0001.63
2023-11-21 11:09:00,SystemResetWarning,0841.3,4.99,000.00,019.2,018.3,000.0,027.6,020.3,18.1,0000.0,0005.68,0001.85,0001.63
2023-11-21 11:10:00,SystemResetWarning,0841.3,5.01,000.00,019.2,018.3,000.0,027.6,020.3,18.1,0000.0,0005.57,0001.84,0001.62
2023-11-21 11:11:00,SystemResetWarning,0841.3,5.00,000.00,019.2,018.2,000.0,027.6,020.3,18.1,0000.0,0005.67,0001.84,0001.62
2023-11-21 11:12:00,SystemResetWarning,0841.3,5.00,000.00,019.2,018.2,000.0,027.6,020.2,18.1,0000.0,0005.53,0001.81,0001.62
2023-11-21 11:13:00,SystemResetWarning,0841.3,5.01,000.00,019.1,018.2,000.0,027.6,020.2,18.1,0000.0,0005.58,0001.82,0001.61
2023-11-21 11:14:00,SystemResetWarning,0841.3,5.00,000.00,019.1,018.2,000.0,027.5,020.2,18.2,0000.0,0005.58,0001.81,0001.61
2023-11-21 11:15:00,SystemResetWarning,0841.3,4.99,000.00,019.1,018.2,000.0,027.5,020.2,18.2,0000.0,0005.66,0001.81,0001.61
2023-11-21 11:16:00,SystemResetWarning,0841.3,5.00,000.00,019.1,018.2,000.0,027.5,020.2,18.2,0000.0,0005.85,0001.82,0001.59
2023-11-21 11:17:00,SystemResetWarning,0841.3,5.00,000.00,019.1,018.2,000.0,027.5,020.3,18.2,0000.0,0005.95,0001.86,0001.58
2023-11-21 11:18:00,SystemResetWarning,0841.3,5.00,000.00,019.1,018.2,000.0,027.5,020.3,18.3,0000.0,0004.10,0001.85,0001.58
2023-11-21 11:19:00,SystemResetWarning,0841.3,5.01,000.00,019.1,018.2,000.0,027.5,020.3,18.3,0000.0,0003.04,0001.84,0001.58
2023-11-21 11:20:00,SystemResetWarning,0841.3,5.01,000.00,019.1,018.2,000.0,027.5,020.3,18.4,0000.0,0003.61,0001.84,0001.58
2023-11-21 11:21:00,SystemResetWarning,0841.3,4.99,000.00,019.1,018.2,000.0,027.5,020.2,18.4,0000.0,0003.78,0001.84,0001.57
2023-11-21 11:22:00,SystemResetWarning,0841.3,4.99,000.00,019.1,018.2,000.0,027.5,020.2,18.4,0000.0,0003.54,0001.80,0001.56
2023-11-21 11:23:00,SystemResetWarning,0841.2,4.99,000.00,019.1,018.2,000.0,027.5,020.3,18.4,0000.0,0003.52,0001.79,0001.55
2023-11-21 11:24:00,SystemResetWarning,0841.2,5.00,000.00,019.1,018.2,000.0,027.5,020.3,18.4,0000.0,0003.39,0001.76,0001.54
2023-11-21 11:25:00,SystemResetWarning,0841.3,5.00,000.00,019.1,018.2,000.0,027.5,020.3,18.4,0000.0,0003.37,0001.75,0001.54
2023-11-21 11:26:00,SystemResetWarning,0841.2,5.00,000.00,019.1,018.2,000.0,027.5,020.3,18.3,0000.0,0003.30,0001.75,0001.54
2023-11-21 11:27:00,SystemResetWarning,0841.3,5.00,000.00,019.1,018.2,000.0,027.5,020.3,18.3,0000.0,0003.20,0001.76,0001.54
2023-11-21 11:28:00,SystemResetWarning,0841.2,5.00,000.00,019.1,018.2,000.0,027.5,020.3,18.3,0000.0,0003.20,0001.76,0001.55
2023-11-21 11:29:00,SystemResetWarning,0841.2,5.00,000.00,019.1,018.2,000.0,027.5,020.3,18.3,0000.0,0003.27,0001.79,0001.56
2023-11-21 11:30:00,SystemResetWarning,0841.3,5.00,000.00,019.1,018.2,000.0,027.5,020.3,18.4,0000.0,0003.27,0001.80,0001.54
2023-11-21 11:31:00,SystemResetWarning,0841.3,5.00,000.00,019.1,018.2,000.0,027.5,020.4,18.4,0000.0,0002.71,0001.82,0001.52
2023-11-21 11:32:00,SystemResetWarning,0841.3,5.00,000.00,019.1,018.2,000.0,027.5,020.4,18.4,0000.0,0002.49,0001.78,0001.51
2023-11-21 11:33:00,SystemResetWarning,0841.2,5.00,000.00,019.1,018.2,000.0,027.4,020.3,18.4,0000.0,0002.49,0001.80,0001.51
2023-11-21 11:34:00,SystemResetWarning,0841.3,5.00,000.00,019.1,018.1,000.0,027.4,020.3,18.4,0000.0,0002.49,0001.80,0001.50
2023-11-21 11:35:00,SystemResetWarning,0841.2,5.00,000.00,019.1,018.1,000.0,027.4,020.2,18.4,0000.0,0002.48,0001.79,0001.48
2023-11-21 11:36:00,SystemResetWarning,0841.2,5.00,000.00,019.1,018.1,000.0,027.4,020.2,18.4,0000.0,0002.52,0001.79,0001.48
2023-11-21 11:37:00,SystemResetWarning,0841.1,5.00,000.00,019.1,018.1,000.0,027.4,020.2,18.4,0000.0,0002.55,0001.81,0001.49
2023-11-21 11:38:00,SystemResetWarning,0841.2,5.00,000.00,019.1,018.1,000.0,027.4,020.2,18.4,0000.0,0002.48,0001.80,0001.49
2023-11-21 11:39:00,SystemResetWarning,0841.2,5.00,000.00,019.0,018.1,000.0,027.4,020.1,18.4,0000.0,0002.43,0001.78,0001.49
2023-11-21 11:40:00,SystemResetWarning,0841.3,4.99,000.00,019.0,018.1,000.0,027.4,020.1,18.3,0000.0,0002.42,0001.77,0001.48
2023-11-21 11:41:00,SystemResetWarning,0841.3,4.99,000.00,019.0,018.1,000.0,027.4,020.1,18.2,0000.0,0002.63,0001.77,0001.49
2023-11-21 11:42:00,SystemResetWarning,0841.4,5.00,000.00,019.0,018.1,000.0,027.4,020.2,18.2,0000.0,0002.68,0001.76,0001.50
2023-11-21 11:43:00,SystemResetWarning,0841.4,5.00,000.00,019.0,018.1,000.0,027.4,020.2,18.2,0000.0,0002.76,0001.79,0001.50
2023-11-21 11:44:00,SystemResetWarning,0841.4,5.02,000.00,019.0,018.1,000.0,027.4,020.1,18.2,0000.0,0002.78,0001.79,0001.51
2023-11-21 11:45:00,SystemResetWarning,0841.4,5.01,000.00,019.0,018.1,000.0,027.4,020.1,18.2,0000.0,0002.84,0001.83,0001.53
2023-11-21 11:46:00,SystemResetWarning,0841.4,4.99,000.00,019.0,018.1,000.0,027.4,020.1,18.2,0000.0,0002.88,0001.84,0001.53
2023-11-21 11:47:00,SystemResetWarning,0841.3,4.99,000.00,019.0,018.1,000.0,027.4,020.1,18.2,0000.0,0002.91,0001.86,0001.53
2023-11-21 11:48:00,SystemResetWarning,0841.4,5.00,000.00,019.0,018.2,000.0,027.4,020.1,18.3,0000.0,0002.96,0001.85,0001.51
2023-11-21 11:49:00,SystemResetWarning,0841.3,5.01,000.00,019.0,018.2,000.0,027.4,020.1,18.4,0000.0,0002.98,0001.83,0001.50
2023-11-21 11:50:00,SystemResetWarning,0841.3,5.00,000.00,019.0,018.2,000.0,027.3,020.1,18.4,0000.0,0002.97,0001.81,0001.49
2023-11-21 11:51:00,SystemResetWarning,0841.3,5.01,000.00,019.0,018.2,000.0,027.3,020.1,18.4,0000.0,0002.94,0001.79,0001.48
2023-11-21 11:52:00,SystemResetWarning,0841.3,5.00,000.00,019.0,018.2,000.0,027.3,020.1,18.4,0000.0,0002.81,0001.79,0001.48
2023-11-21 11:53:00,SystemResetWarning,0841.3,5.00,000.00,019.0,018.2,000.0,027.3,020.2,18.4,0000.0,0002.74,0001.81,0001.48
2023-11-21 11:54:00,SystemResetWarning,0841.3,4.99,000.00,019.0,018.2,000.0,027.3,020.2,18.4,0000.0,0002.78,0001.83,0001.50
2023-11-21 11:55:00,SystemResetWarning,0841.4,4.99,000.00,019.0,018.2,000.0,027.3,020.1,18.4,0000.0,0003.30,0001.85,0001.50
2023-11-21 11:56:00,SystemResetWarning,0841.4,5.00,000.00,019.0,018.2,000.0,027.3,020.1,18.4,0000.0,0003.56,0001.88,0001.52
2023-11-21 11:57:00,SystemResetWarning,0841.4,5.00,000.00,019.0,018.2,000.0,027.3,020.1,18.4,0000.0,0003.55,0001.87,0001.54
2023-11-21 11:58:00,SystemResetWarning,0841.4,5.00,000.00,019.0,018.2,000.0,027.3,020.1,18.4,0000.0,0003.56,0001.90,0001.57
2023-11-21 11:59:00,SystemResetWarning,0841.4,5.00,000.00,019.0,018.2,000.0,027.3,020.1,18.4,0000.0,0003.52,0001.91,0001.58
